Погода в селе имени Мичурина

Россия / Республика Дагестан     42°10′41″N   48°11′48″E
темп.,
°C
ветер,
м/с
пор.,
м/с
влажн.,
%
обл.,
%
осадки,
мм/ч
давл.,
гПа
погр.,
м
25 июня, сб
сб2500:00+22зсз118192 0.0 100937
03:00+21зсз228120 0.0 100884
06:00+22зсз117899 0.0 100975
09:00+22с44778 0.0 1009331
12:00+22ссв44761 0.0 1008346
15:00+23ссв4474100 0.0 1008327
18:00+23с3373100 0.0 1008179
21:00+23сз4474100 0.0 100991
26 июня, вс
вс2600:00+22сз2275100 0.0 100835
03:00+22сз5776100 0.0 1007208
06:00+23зсз2274100 0.0 100751
09:00+22с6777100 0.0 1007335
12:00+23с6874100 0.0 1006328
15:00+23ссз697257 0.0 1005307
18:00+24ссз61171100 0.0 1004192
21:00+24ссз6975100 0.1 1006132
27 июня, пн
пн2700:00+23сз4779100 0.1 1006119
03:00+23ссз814800 0.3 1005278
06:00+24сз713680 0.0 1007278
09:00+24ссз1015710 0.0 1007414
12:00+25ссз1318700 0.0 1007522
15:00+23ссз1318780 0.0 1006507
18:00+23ссз1219770 0.0 1006406
21:00+24ссз1219701 0.0 1006347
28 июня, вт
вт2800:00+25ссз13196657 0.0 1006532
03:00+25сз1319581 0.0 1006508
06:00+24ссз1319600 0.0 1006547
09:00+24ссз1217670 0.0 1006606
12:00+23с1117730 0.0 1006541
15:00+24ссз1117730 0.0 1007479
18:00+23ссз1015780 0.0 1009466
21:00+23ссз813720 0.0 1010329
29 июня, ср
ср2900:00+23сз587184 0.0 1010138
03:00+23сз467140 0.0 101093
06:00+23сз46690 0.0 1011115
09:00+23с710660 0.0 1011372
12:00+24с79700 0.0 1011358
15:00+23ссв46810 0.0 1011340
18:00+23с55840 0.0 1012345
21:00+22с56855 0.0 1014462